This is the latest recevied weather packets stored in our database for station/object DG7AA-13. If no packets are shown the sender has not sent any weather packets the latest 10 day(s).
| Time | Temp. | Humidity | Pressure | Rain* | Wind** | Luminosity | Snow |
|---|---|---|---|---|---|---|---|
| 1777582531 | 7.78° C | 75% | - | 0 mm | - | - | - |
| 1777581920 | 7.78° C | 73% | - | 0 mm | - | - | - |
| 1777581331 | 8.33° C | 72% | - | 0 mm | - | - | - |
| 1777580723 | 8.89° C | 70% | - | 0 mm | - | - | - |
| 1777580131 | 9.44° C | 66% | - | 0 mm | - | - | - |
| 1777579526 | 10° C | 62% | - | 0 mm | - | - | - |
| 1777578927 | 10.56° C | 60% | - | 0 mm | - | - | - |
| 1777578326 | 11.11° C | 58% | - | 0 mm | - | - | - |
| 1777577730 | 11.67° C | 57% | - | 0 mm | - | - | - |
| 1777577123 | 11.67° C | 56% | - | 0 mm | - | - | - |
| 1777576531 | 11.67° C | 56% | - | 0 mm | - | - | - |
| 1777575926 | 12.22° C | 54% | - | 0 mm | - | - | - |
| 1777575331 | 12.78° C | 52% | - | 0 mm | - | - | - |
| 1777574723 | 13.33° C | 51% | - | 0 mm | - | - | - |
| 1777574129 | 13.89° C | 49% | - | 0 mm | - | - | - |
| 1777573528 | 14.44° C | 47% | - | 0 mm | - | - | - |
| 1777572931 | 15° C | 44% | - | 0 mm | - | - | - |
| 1777572323 | 15° C | 44% | - | 0 mm | - | - | - |
| 1777571727 | 15.56° C | 44% | - | 0 mm | - | - | - |
| 1777571128 | 15.56° C | 42% | - | 0 mm | - | - | - |
| 1777570532 | 16.11° C | 42% | - | 0 mm | - | - | - |
| 1777569926 | 16.11° C | 40% | - | 0 mm | - | - | - |
| 1777569331 | 16.11° C | 41% | - | 0 mm | - | - | - |
| 1777568723 | 16.67° C | 39% | - | 0 mm | - | - | - |
| 1777568126 | 16.67° C | 39% | - | 0 mm | - | - | - |
* Rain latest hour (hover to see other rain measurements)
** Current wind speed in m/s (hover to see current wind gust speed)